Time,TemperatureF,DewpointF,PressureIn,WindDirection,WindDirectionDegrees,WindSpeedMPH,WindSpeedGustMPH,Humidity,HourlyPrecipIn,Conditions,Clouds,dailyrainin,SolarRadiationWatts/m^2,SoftwareType,DateUTC
2013-03-18 00:01:00,-2.0,-8.0,-100.00,SE,124,0.0,4.0,75,0.00,,,0.00,0.000000,,2013-03-18 04:01:00,
2013-03-18 00:23:00,-2.0,-8.0,-100.00,SE,124,0.0,4.0,75,0.00,,,0.00,0.000000,,2013-03-18 04:23:00,
2013-03-18 00:33:00,-2.0,-8.0,-100.00,SE,124,0.0,4.0,75,0.00,,,0.00,0.000000,,2013-03-18 04:33:00,
2013-03-18 00:42:00,-2.0,-8.0,-100.00,SE,124,0.0,4.0,75,0.00,,,0.00,0.000000,,2013-03-18 04:42:00,
2013-03-18 00:53:00,-2.0,-8.0,-100.00,SE,124,0.0,4.0,75,0.00,,,0.00,0.000000,,2013-03-18 04:53:00,
2013-03-18 01:01:00,-4.0,-10.0,-100.00,ESE,117,1.0,3.0,76,0.00,,,0.00,0.000000,,2013-03-18 05:01:00,
2013-03-18 01:32:00,-4.0,-10.0,-100.00,ESE,117,1.0,3.0,76,0.00,,,0.00,0.000000,,2013-03-18 05:32:00,
2013-03-18 01:43:00,-4.0,-10.0,-100.00,ESE,117,1.0,3.0,76,0.00,,,0.00,0.000000,,2013-03-18 05:43:00,
2013-03-18 01:52:00,-4.0,-10.0,-100.00,ESE,117,1.0,3.0,76,0.00,,,0.00,0.000000,,2013-03-18 05:52:00,
2013-03-18 02:01:00,-4.0,-9.0,-100.00,ESE,102,2.0,4.0,77,0.00,,,0.00,0.000000,,2013-03-18 06:01:00,
2013-03-18 02:22:00,-4.0,-9.0,-100.00,ESE,102,2.0,4.0,77,0.00,,,0.00,0.000000,,2013-03-18 06:22:00,
2013-03-18 02:32:00,-4.0,-9.0,-100.00,ESE,102,2.0,4.0,77,0.00,,,0.00,0.000000,,2013-03-18 06:32:00,
2013-03-18 02:42:00,-4.0,-9.0,-100.00,ESE,102,2.0,4.0,77,0.00,,,0.00,0.000000,,2013-03-18 06:42:00,
2013-03-18 02:53:00,-4.0,-9.0,-100.00,ESE,102,2.0,4.0,77,0.00,,,0.00,0.000000,,2013-03-18 06:53:00,
2013-03-18 03:01:00,-4.0,-9.0,-100.00,East,99,2.0,5.0,77,0.00,,,0.00,0.000000,,2013-03-18 07:01:00,
2013-03-18 03:33:00,-4.0,-9.0,-100.00,East,99,2.0,5.0,77,0.00,,,0.00,0.000000,,2013-03-18 07:33:00,
2013-03-18 03:43:00,-4.0,-9.0,-100.00,East,99,2.0,5.0,77,0.00,,,0.00,0.000000,,2013-03-18 07:43:00,
2013-03-18 03:53:00,-4.0,-9.0,-100.00,East,99,2.0,5.0,77,0.00,,,0.00,0.000000,,2013-03-18 07:53:00,
2013-03-18 04:01:00,-4.0,-10.0,-100.00,East,100,1.0,5.0,75,0.00,,,0.00,0.000000,,2013-03-18 08:01:00,
2013-03-18 04:32:00,-4.0,-10.0,-100.00,East,100,1.0,5.0,75,0.00,,,0.00,0.000000,,2013-03-18 08:32:00,
2013-03-18 04:43:00,-4.0,-10.0,-100.00,East,100,1.0,5.0,75,0.00,,,0.00,0.000000,,2013-03-18 08:43:00,
2013-03-18 04:53:00,-4.0,-10.0,-100.00,East,100,1.0,5.0,75,0.00,,,0.00,0.000000,,2013-03-18 08:53:00,
2013-03-18 05:01:00,-5.0,-11.0,-100.00,ESE,104,2.0,4.0,76,0.00,,,0.00,0.000000,,2013-03-18 09:01:00,
2013-03-18 05:33:00,-5.0,-11.0,-100.00,ESE,104,2.0,4.0,76,0.00,,,0.00,0.000000,,2013-03-18 09:33:00,
2013-03-18 05:43:00,-5.0,-11.0,-100.00,ESE,104,2.0,4.0,76,0.00,,,0.00,0.000000,,2013-03-18 09:43:00,
2013-03-18 05:53:00,-5.0,-11.0,-100.00,ESE,104,2.0,4.0,76,0.00,,,0.00,0.000000,,2013-03-18 09:53:00,
2013-03-18 06:01:00,-5.0,-11.0,-100.00,ESE,119,1.0,4.0,75,0.00,,,0.00,0.000000,,2013-03-18 10:01:00,
2013-03-18 06:33:00,-5.0,-11.0,-100.00,ESE,119,1.0,4.0,75,0.00,,,0.00,0.000000,,2013-03-18 10:33:00,
2013-03-18 06:42:00,-5.0,-11.0,-100.00,ESE,119,1.0,4.0,75,0.00,,,0.00,0.000000,,2013-03-18 10:42:00,
2013-03-18 06:53:00,-5.0,-11.0,-100.00,ESE,119,1.0,4.0,75,0.00,,,0.00,0.000000,,2013-03-18 10:53:00,
2013-03-18 07:01:00,-6.0,-12.0,-100.00,ESE,103,1.0,4.0,74,0.00,,,0.00,0.000000,,2013-03-18 11:01:00,
2013-03-18 07:22:00,-6.0,-12.0,-100.00,ESE,103,1.0,4.0,74,0.00,,,0.00,0.000000,,2013-03-18 11:22:00,
2013-03-18 07:32:00,-6.0,-12.0,-100.00,ESE,103,1.0,4.0,74,0.00,,,0.00,0.000000,,2013-03-18 11:32:00,
2013-03-18 07:43:00,-6.0,-12.0,-100.00,ESE,103,1.0,4.0,74,0.00,,,0.00,0.000000,,2013-03-18 11:43:00,
2013-03-18 07:53:00,-6.0,-12.0,-100.00,ESE,103,1.0,4.0,74,0.00,,,0.00,0.000000,,2013-03-18 11:53:00,
2013-03-18 08:01:00,-3.0,-9.0,-100.00,ESE,109,1.0,4.0,74,0.00,,,0.00,22.000000,,2013-03-18 12:01:00,
2013-03-18 08:22:00,-3.0,-9.0,-100.00,ESE,109,1.0,4.0,74,0.00,,,0.00,22.000000,,2013-03-18 12:22:00,
2013-03-18 08:33:00,-3.0,-9.0,-100.00,ESE,109,1.0,4.0,74,0.00,,,0.00,22.000000,,2013-03-18 12:33:00,
2013-03-18 08:43:00,-3.0,-9.0,-100.00,ESE,109,1.0,4.0,74,0.00,,,0.00,22.000000,,2013-03-18 12:43:00,
2013-03-18 08:52:00,-3.0,-9.0,-100.00,ESE,109,1.0,4.0,74,0.00,,,0.00,22.000000,,2013-03-18 12:52:00,
2013-03-18 09:01:00,16.0,3.0,-100.00,ENE,59,0.0,4.0,57,0.00,,,0.00,202.000000,,2013-03-18 13:01:00,
2013-03-18 09:33:00,16.0,3.0,-100.00,ENE,59,0.0,4.0,57,0.00,,,0.00,202.000000,,2013-03-18 13:33:00,
2013-03-18 09:42:00,16.0,3.0,-100.00,ENE,59,0.0,4.0,57,0.00,,,0.00,202.000000,,2013-03-18 13:42:00,
2013-03-18 09:52:00,16.0,3.0,-100.00,ENE,59,0.0,4.0,57,0.00,,,0.00,202.000000,,2013-03-18 13:52:00,
2013-03-18 10:01:00,23.0,-4.0,-100.00,NE,38,3.0,5.0,29,0.00,,,0.00,411.000000,,2013-03-18 14:01:00,
2013-03-18 10:32:00,23.0,-4.0,-100.00,NE,38,3.0,5.0,29,0.00,,,0.00,411.000000,,2013-03-18 14:32:00,
2013-03-18 10:42:00,23.0,-4.0,-100.00,NE,38,3.0,5.0,29,0.00,,,0.00,411.000000,,2013-03-18 14:42:00,
2013-03-18 10:52:00,23.0,-4.0,-100.00,NE,38,3.0,5.0,29,0.00,,,0.00,411.000000,,2013-03-18 14:52:00,
2013-03-18 11:01:00,27.0,-2.0,-100.00,NE,53,4.0,8.0,28,0.00,,,0.00,539.000000,,2013-03-18 15:01:00,
2013-03-18 11:23:00,27.0,-2.0,-100.00,NE,53,4.0,8.0,28,0.00,,,0.00,539.000000,,2013-03-18 15:23:00,
2013-03-18 11:33:00,27.0,-2.0,-100.00,NE,53,4.0,8.0,28,0.00,,,0.00,539.000000,,2013-03-18 15:33:00,
2013-03-18 11:43:00,27.0,-2.0,-100.00,NE,53,4.0,8.0,28,0.00,,,0.00,539.000000,,2013-03-18 15:43:00,
2013-03-18 11:52:00,27.0,-2.0,-100.00,NE,53,4.0,8.0,28,0.00,,,0.00,539.000000,,2013-03-18 15:52:00,
2013-03-18 12:01:00,29.0,1.0,-100.00,NE,55,7.0,11.0,29,0.00,,,0.00,625.000000,,2013-03-18 16:01:00,
2013-03-18 12:33:00,29.0,1.0,-100.00,NE,55,7.0,11.0,29,0.00,,,0.00,625.000000,,2013-03-18 16:33:00,
2013-03-18 12:42:00,29.0,1.0,-100.00,NE,55,7.0,11.0,29,0.00,,,0.00,625.000000,,2013-03-18 16:42:00,
2013-03-18 12:53:00,29.0,1.0,-100.00,NE,55,7.0,11.0,29,0.00,,,0.00,625.000000,,2013-03-18 16:53:00,
2013-03-18 13:01:00,30.0,0.0,-100.00,NE,38,7.0,12.0,27,0.00,,,0.00,600.000000,,2013-03-18 17:01:00,
2013-03-18 13:33:00,30.0,0.0,-100.00,NE,38,7.0,12.0,27,0.00,,,0.00,600.000000,,2013-03-18 17:33:00,
2013-03-18 13:43:00,30.0,0.0,-100.00,NE,38,7.0,12.0,27,0.00,,,0.00,600.000000,,2013-03-18 17:43:00,
2013-03-18 13:52:00,30.0,0.0,-100.00,NE,38,7.0,12.0,27,0.00,,,0.00,600.000000,,2013-03-18 17:52:00,
2013-03-18 14:01:00,31.0,1.0,-100.00,NE,41,7.0,14.0,27,0.00,,,0.00,550.000000,,2013-03-18 18:01:00,
2013-03-18 14:32:00,31.0,1.0,-100.00,NE,41,7.0,14.0,27,0.00,,,0.00,550.000000,,2013-03-18 18:32:00,
2013-03-18 14:42:00,31.0,1.0,-100.00,NE,41,7.0,14.0,27,0.00,,,0.00,550.000000,,2013-03-18 18:42:00,
2013-03-18 14:52:00,31.0,1.0,-100.00,NE,41,7.0,14.0,27,0.00,,,0.00,550.000000,,2013-03-18 18:52:00,
2013-03-18 15:01:00,32.0,2.0,-100.00,NE,46,7.0,13.0,27,0.00,,,0.00,497.000000,,2013-03-18 19:01:00,
2013-03-18 15:22:00,32.0,2.0,-100.00,NE,46,7.0,13.0,27,0.00,,,0.00,497.000000,,2013-03-18 19:22:00,
2013-03-18 15:33:00,32.0,2.0,-100.00,NE,46,7.0,13.0,27,0.00,,,0.00,497.000000,,2013-03-18 19:33:00,
2013-03-18 15:42:00,32.0,2.0,-100.00,NE,46,7.0,13.0,27,0.00,,,0.00,497.000000,,2013-03-18 19:42:00,
2013-03-18 15:52:00,32.0,2.0,-100.00,NE,46,7.0,13.0,27,0.00,,,0.00,497.000000,,2013-03-18 19:52:00,
2013-03-18 16:01:00,31.0,1.0,-100.00,East,90,6.0,15.0,27,0.00,,,0.00,299.000000,,2013-03-18 20:01:00,
2013-03-18 16:33:00,31.0,1.0,-100.00,East,90,6.0,15.0,27,0.00,,,0.00,299.000000,,2013-03-18 20:33:00,
2013-03-18 16:43:00,31.0,1.0,-100.00,East,90,6.0,15.0,27,0.00,,,0.00,299.000000,,2013-03-18 20:43:00,
2013-03-18 16:53:00,31.0,1.0,-100.00,East,90,6.0,15.0,27,0.00,,,0.00,299.000000,,2013-03-18 20:53:00,
2013-03-18 17:01:00,30.0,3.0,-100.00,ESE,102,4.0,14.0,31,0.00,,,0.00,170.000000,,2013-03-18 21:01:00,
2013-03-18 17:23:00,30.0,3.0,-100.00,ESE,102,4.0,14.0,31,0.00,,,0.00,170.000000,,2013-03-18 21:23:00,
2013-03-18 17:33:00,30.0,3.0,-100.00,ESE,102,4.0,14.0,31,0.00,,,0.00,170.000000,,2013-03-18 21:33:00,
2013-03-18 17:43:00,30.0,3.0,-100.00,ESE,102,4.0,14.0,31,0.00,,,0.00,170.000000,,2013-03-18 21:43:00,
2013-03-18 17:53:00,30.0,3.0,-100.00,ESE,102,4.0,14.0,31,0.00,,,0.00,170.000000,,2013-03-18 21:53:00,
2013-03-18 18:01:00,29.0,-2.0,-100.00,ENE,78,4.0,10.0,26,0.00,,,0.00,122.000000,,2013-03-18 22:01:00,
2013-03-18 18:33:00,29.0,-2.0,-100.00,ENE,78,4.0,10.0,26,0.00,,,0.00,122.000000,,2013-03-18 22:33:00,
2013-03-18 18:42:00,29.0,-2.0,-100.00,ENE,78,4.0,10.0,26,0.00,,,0.00,122.000000,,2013-03-18 22:42:00,
2013-03-18 18:53:00,29.0,-2.0,-100.00,ENE,78,4.0,10.0,26,0.00,,,0.00,122.000000,,2013-03-18 22:53:00,
2013-03-18 19:01:00,27.0,-3.0,-100.00,East,92,4.0,12.0,26,0.00,,,0.00,34.000000,,2013-03-18 23:01:00,
2013-03-18 19:33:00,27.0,-3.0,-100.00,East,92,4.0,12.0,26,0.00,,,0.00,34.000000,,2013-03-18 23:33:00,
2013-03-18 19:43:00,27.0,-3.0,-100.00,East,92,4.0,12.0,26,0.00,,,0.00,34.000000,,2013-03-18 23:43:00,
2013-03-18 19:53:00,27.0,-3.0,-100.00,East,92,4.0,12.0,26,0.00,,,0.00,34.000000,,2013-03-18 23:53:00,
2013-03-18 20:01:00,27.0,-2.0,-100.00,ENE,70,4.0,8.0,28,0.00,,,0.00,0.000000,,2013-03-19 00:01:00,
2013-03-18 20:23:00,27.0,-2.0,-100.00,ENE,70,4.0,8.0,28,0.00,,,0.00,0.000000,,2013-03-19 00:23:00,
2013-03-18 20:33:00,27.0,-2.0,-100.00,ENE,70,4.0,8.0,28,0.00,,,0.00,0.000000,,2013-03-19 00:33:00,
2013-03-18 20:43:00,27.0,-2.0,-100.00,ENE,70,4.0,8.0,28,0.00,,,0.00,0.000000,,2013-03-19 00:43:00,
2013-03-18 20:52:00,27.0,-2.0,-100.00,ENE,70,4.0,8.0,28,0.00,,,0.00,0.000000,,2013-03-19 00:52:00,
2013-03-18 21:01:00,28.0,-2.0,-100.00,East,98,4.0,13.0,27,0.00,,,0.00,0.000000,,2013-03-19 01:01:00,
2013-03-18 21:23:00,28.0,-2.0,-100.00,East,98,4.0,13.0,27,0.00,,,0.00,0.000000,,2013-03-19 01:23:00,
2013-03-18 21:33:00,28.0,-2.0,-100.00,East,98,4.0,13.0,27,0.00,,,0.00,0.000000,,2013-03-19 01:33:00,
2013-03-18 21:43:00,28.0,-2.0,-100.00,East,98,4.0,13.0,27,0.00,,,0.00,0.000000,,2013-03-19 01:43:00,
2013-03-18 21:53:00,28.0,-2.0,-100.00,East,98,4.0,13.0,27,0.00,,,0.00,0.000000,,2013-03-19 01:53:00,
2013-03-18 22:01:00,27.0,5.0,-100.00,East,96,4.0,13.0,39,0.00,,,0.00,0.000000,,2013-03-19 02:01:00,
2013-03-18 22:33:00,27.0,5.0,-100.00,East,96,4.0,13.0,39,0.00,,,0.00,0.000000,,2013-03-19 02:33:00,
2013-03-18 22:43:00,27.0,5.0,-100.00,East,96,4.0,13.0,39,0.00,,,0.00,0.000000,,2013-03-19 02:43:00,
2013-03-18 22:53:00,27.0,5.0,-100.00,East,96,4.0,13.0,39,0.00,,,0.00,0.000000,,2013-03-19 02:53:00,
2013-03-18 23:01:00,27.0,16.0,-100.00,ESE,102,6.0,15.0,63,0.00,,,0.00,0.000000,,2013-03-19 03:01:00,
2013-03-18 23:23:00,27.0,16.0,-100.00,ESE,102,6.0,15.0,63,0.00,,,0.00,0.000000,,2013-03-19 03:23:00,
2013-03-18 23:33:00,27.0,16.0,-100.00,ESE,102,6.0,15.0,63,0.00,,,0.00,0.000000,,2013-03-19 03:33:00,
2013-03-18 23:43:00,27.0,16.0,-100.00,ESE,102,6.0,15.0,63,0.00,,,0.00,0.000000,,2013-03-19 03:43:00,
2013-03-18 23:54:00,27.0,16.0,-100.00,ESE,102,6.0,15.0,63,0.00,,,0.00,0.000000,,2013-03-19 03:54:00,